Flag for U.S.A. Weather past 2 weeks in St. Augustine, Florida, U.S.A.

Now
53 °F

Overcast.


Feels Like: 48 °F
Forecast: 54 / 63 °F
Wind: 18 mph from North

Location: St. Augustine Airport

Current Time: Feb 27, 2015 at 9:27:10 PM

Latest Report: Feb 27, 2015 at 8:58 PM


Visibility: 10 mi

Pressure: 30.33 "Hg

Humidity: 83%

Dew point: 48 °F

Location of St. AugustineLocation

Historic Weather in St. Augustine — Graph

°F

St. Augustine temperature yesterday

Maximum temperature yesterday: 72 °F (at 1:58 AM)
Minimum temperature yesterday: 50 °F (at 11:58 PM)
Average temperature yesterday: 59 °F

Past Weeks' High & Low Weather Summary

 TemperatureHumidityPressure
High77 °F (Feb 22, 11:58 AM)100% (Feb 17, 3:02 PM)30.50 "Hg (Feb 17, 3:02 PM)
Low28 °F (Feb 20, 6:58 AM)22% (Feb 19, 2:58 PM)29.59 "Hg (Feb 26, 2:58 AM)
Average53 °F73%30.12 "Hg
* Reported Feb 12 7:58 PM — Feb 27 7:58 PM, St. Augustine, Weather by CustomWeather, © 2015

Note: Actual official high and low records may vary slightly from our data, if they occured in-between our weather recording intervals... More about our weather records

Advertising

St. Augustine weather history for previous 24 hours

 ConditionsComfort  
Time TempWeatherWind HumidityBarometerVisibility
7:58 PM
Fri, Feb 27
53 °FMostly cloudy.16 mph83%30.31 "Hg10 mi
6:58 PM52 °FOvercast.20 mph83%30.30 "Hg6 mi
5:58 PM51 °FOvercast.17 mph83%30.30 "Hg10 mi
4:58 PM50 °FOvercast.17 mph80%30.29 "Hg5 mi
3:58 PM51 °FOvercast.18 mph77%30.28 "Hg5 mi
3:02 PM52 °FOvercast.17 mph77%30.29 "Hg10 mi
2:58 PM51 °FMostly cloudy.21 mph77%30.29 "Hg7 mi
1:58 PM52 °FOvercast.16 mph77%30.29 "Hg10 mi
12:58 PM52 °FOvercast.20 mph75%30.31 "Hg10 mi
11:58 AM53 °FSunny.21 mph69%30.31 "Hg10 mi
10:58 AM52 °FSunny.20 mph66%30.32 "Hg10 mi
9:58 AM52 °FScattered clouds.20 mph69%30.30 "Hg10 mi
8:58 AM51 °FPartly sunny.14 mph71%30.28 "Hg10 mi
7:58 AM50 °FOvercast.15 mph74%30.24 "Hg10 mi
6:58 AM50 °FPartly sunny.16 mph74%30.21 "Hg10 mi
5:58 AM51 °FMostly cloudy.15 mph77%30.18 "Hg10 mi
4:58 AM51 °FMostly cloudy.14 mph80%30.16 "Hg10 mi
3:58 AM51 °FMostly cloudy.9 mph83%30.14 "Hg10 mi
2:58 AM51 °FPassing clouds.9 mph80%30.13 "Hg10 mi
1:58 AM51 °FOvercast.13 mph77%30.14 "Hg10 mi
12:58 AM50 °FOvercast.14 mph77%30.13 "Hg10 mi
11:58 PM
Thu, Feb 26
50 °FOvercast.14 mph77%30.13 "Hg10 mi
10:58 PM51 °FOvercast.14 mph77%30.13 "Hg10 mi
9:58 PM51 °FOvercast.10 mph77%30.11 "Hg10 mi
Weather by CustomWeather, © 2015

See weather overviewHow to use our weather pages